• Processing (Info)

  • MPEC 2013-T65 : 2013 TY68

    The following Minor Planet Electronic Circular may be linked-to from your own Web pages, but must not otherwise be redistributed electronically.

    A form allowing access to any MPEC is at the bottom of this page.


    Read MPEC 2013-T64 Read MPEC 2013-T66


    M.P.E.C. 2013-T65                                Issued 2013 Oct. 7, 17:35 UT
    
         The Minor Planet Electronic Circulars contain information on unusual
             minor planets and routine data on comets.  They are published
       on behalf of Commission 20 of the International Astronomical Union by the
              Minor Planet Center, Smithsonian Astrophysical Observatory,
                              Cambridge, MA 02138, U.S.A.
    
                 Prepared using the Tamkin Foundation Computer Network
    
                                  MPC@CFA.HARVARD.EDU
                URL http://www.minorplanetcenter.net/    ISSN 1523-6714
    
                                       2013 TY68
    
    Observations:
         K13T68Y* C2013 10 06.28274 23 56 23.27 +10 39 15.7          21.2 VqET065G96
         K13T68Y  C2013 10 06.28861 23 56 31.88 +10 38 14.6          20.6 VqET065G96
         K13T68Y  C2013 10 06.29452 23 56 40.61 +10 37 13.7          20.9 VqET065G96
         K13T68Y  C2013 10 06.30044 23 56 49.20 +10 36 13.4          20.6 VqET065G96
         K13T68Y  C2013 10 06.30679 23 56 58.53 +10 35 07.6          20.9 VqET065G96
         K13T68Y  C2013 10 06.30735 23 56 59.28 +10 35 02.4          22.0 VqET065G96
         K13T68Y  C2013 10 06.30791 23 57 00.15 +10 34 55.7          21.3 VqET065G96
         K13T68Y  C2013 10 06.30847 23 57 01.00 +10 34 49.8          20.5 VqET065G96
         K13T68Y KC2013 10 07.29604 00 18 35.48 +08 11 29.6          20.8 RoET065291
         K13T68Y KC2013 10 07.29745 00 18 36.82 +08 11 19.3                oET065291
         K13T68Y KC2013 10 07.29887 00 18 38.25 +08 11 08.5                oET065291
         K13T68Y KC2013 10 07.36296 00 19 41.69 +08 03 13.5          21.8 RoET065291
         K13T68Y KC2013 10 07.36471 00 19 43.46 +08 03 00.3          21.7 RoET065291
    
    Observer details:
    291 LPL/Spacewatch II.  Observer R. S. McMillan.  1.8-m f/2.7 reflector + CCD.
    G96 Mt. Lemmon Survey.  Observer R. E. Hill.  Measurers A. Boattini,
        E. J. Christensen, A. R. Gibbs, A. D. Grauer, R. E. Hill, J. A. Johnson,
        R. A. Kowalski, S. M. Larson, F. C. Shelly.  1.5-m reflector + CCD.
    
    Orbital elements:
    2013 TY68                                                Earth MOID = 0.0119 AU
    Epoch 2013 Nov. 4.0 TT = JDT 2456600.5                  MPC
    M  40.26582              (2000.0)            P               Q
    n   0.53428978     Peri.  117.20881     +0.68248135     +0.73051723
    a   1.5041280      Node   195.90095     -0.69751037     +0.64125004
    e   0.4164284      Incl.    4.97181     -0.21839986     +0.23482539
    P   1.84           H   28.0           G   0.15           U   8
    Residuals in seconds of arc
    131006 G96  0.3-  0.8+    131006 G96  0.6-  0.3+    131007 291  0.2-  0.1+
    131006 G96  0.4-  0.1+    131006 G96  0.2+  0.6-    131007 291  0.4-  0.2-
    131006 G96  0.6+  0.1-    131006 G96  0.7+  0.8-    131007 291  0.3+  0.5-
    131006 G96  0.5-  0.4+    131007 291  0.6+  0.2+
    131006 G96  0.4+  0.2-    131007 291  0.4-  0.4+
    
    Ephemeris:
    2013 TY68                a,e,i = 1.50, 0.42, 5                   q = 0.8778
    Date    TT    R. A. (2000) Decl.     Delta      r     Elong.  Phase     V
    2013 09 07    14 05 48.2 +05 30 54   0.1638  0.9009    45.6   126.9    29.3
    ...
    2013 09 22    14 43 34.7 +08 59 49   0.06772 0.9549    42.5   134.7    28.3
    ...
    2013 09 30    16 45 11.4 +20 14 42   0.02213 0.9933    67.7   111.1    23.9
    ...
    2013 10 06    23 48 31.3 +11 31 58   0.02655 1.0254   164.2    15.4    21.0
    2013 10 07    00 12 56.4 +08 51 45   0.03188 1.0310   170.1     9.6    21.2
    2013 10 08    00 30 00.3 +06 54 46   0.03753 1.0366   173.9     5.9    21.4
    ...
    2013 10 14    01 14 03.0 +01 43 14   0.07426 1.0713   173.6     5.9    23.0
    ...
    2013 10 22    01 31 27.4 -00 09 14   0.1270  1.1199   168.3    10.4    24.4
    ...
    2013 11 06    01 43 17.2 -00 24 44   0.2379  1.2149   157.8    18.0    26.2
    
    A. U. Tomatic                (C) Copyright 2013 MPC           M.P.E.C. 2013-T65
    

    Read MPEC 2013-T64 Read MPEC 2013-T66


    MPEC number:

    Enter an MPEC number in one of the following forms:

    • 1997-B01 (the full form)
    • J97B01 (the packed version of the full form)
    • B01 (the abbreviated form)